CW4482 Weather Reports


Display with metric or nautical units.
time (UTC)temp
F
wind
direction
speed
MPH
gust
MPH
rain 1hr
in
rain 24hr
in
rain mn
in
humidity
%
barometer
mb
20260903220024 80 360 0.0 0.0 0.00 0.00 0.00 89 1012.4
20260903214523 80 360 0.0 0.0 0.00 0.00 0.00 88 1012.8
20260903213027 80 360 0.0 2.0 0.00 0.00 0.00 87 1012.8
20260903211516 81 360 0.0 4.0 0.00 0.00 0.00 86 1013.0
20260903210027 81 360 1.0 3.0 0.00 0.00 0.00 85 1013.2
20260903204528 82 360 1.0 4.0 0.00 0.00 0.00 84 1013.2
20260903203015 83 360 0.0 4.0 0.00 0.00 0.00 80 1013.6
20260903201520 84 360 2.0 6.0 0.00 0.00 0.00 76 1013.2
20260903200020 84 360 3.0 5.0 0.00 0.00 0.00 77 1013.3
20260903194527 84 360 2.0 6.0 0.00 0.00 0.00 79 1013.0
20260903193012 84 360 4.0 8.0 0.00 0.00 0.00 78 1013.2
20260903191520 85 360 4.0 10.0 0.00 0.00 0.00 77 1013.2
20260903190023 87 360 4.0 9.0 0.00 0.00 0.00 74 1013.2
20260903184512 88 360 1.0 3.0 0.00 0.00 0.00 75 1013.5
20260903183014 88 360 1.0 4.0 0.00 0.00 0.00 77 1013.5
20260903181542 88 360 0.0 3.0 0.00 0.00 0.00 77 1013.3
20260903180026 87 360 1.0 4.0 0.00 0.00 0.00 80 1013.7
20260903174515 87 360 1.0 5.0 0.00 0.00 0.00 79 1014.4
20260903173019 87 360 1.0 4.0 0.00 0.00 0.00 84 1014.4
20260903171527 86 360 0.0 2.0 0.00 0.00 0.00 84 1014.3
20260903170012 85 360 1.0 4.0 0.00 0.00 0.00 87 1014.2
20260903164540 84 360 0.0 1.0 0.00 0.00 0.00 88 1014.4
20260903163044 82 360 1.0 3.0 0.00 0.00 0.00 87 1014.5
20260903161527 81 360 0.0 1.0 0.00 0.00 0.00 90 1014.6
20260903160012 81 360 0.0 2.0 0.00 0.00 0.00 91 1014.5
20260903154517 81 360 0.0 1.0 0.00 0.00 0.00 91 1014.3
20260903153040 81 360 0.0 2.0 0.00 0.00 0.00 92 1014.2
20260903151522 81 360 0.0 0.0 0.00 0.00 0.00 92 1014.1
20260903150028 81 360 0.0 0.0 0.00 0.00 0.00 92 1014.1
20260903144513 81 360 0.0 0.0 0.00 0.00 0.00 92 1014.1
20260903143020 81 360 0.0 1.0 0.00 0.00 0.00 92 1014.4
20260903141523 81 360 0.0 0.0 0.00 0.00 0.00 91 1014.6
20260903140046 81 360 0.0 0.0 0.00 0.00 0.00 90 1014.8
20260903134527 81 360 0.0 0.0 0.00 0.00 0.00 90 1014.6
20260903133010 81 360 0.0 0.0 0.00 0.00 0.00 90 1014.4
20260903131538 81 360 0.0 1.0 0.00 0.00 0.00 90 1014.5
20260903130040 81 360 0.0 1.0 0.00 0.00 0.00 90 1014.2
20260903124526 81 360 0.0 0.0 0.00 0.00 0.00 90 1013.8
20260903123029 81 360 0.0 0.0 0.00 0.00 0.00 90 1014.0
20260903121517 81 360 0.0 0.0 0.00 0.00 0.00 89 1013.5
20260903120023 81 360 0.0 0.0 0.00 0.00 0.00 89 1013.3
20260903114530 81 360 0.0 0.0 0.00 0.00 0.00 89 1013.7
20260903113011 82 360 0.0 3.0 0.00 0.00 0.00 88 1013.3
20260903111520 82 360 0.0 2.0 0.00 0.00 0.00 87 1013.2
20260903110024 82 360 0.0 1.0 0.00 0.00 0.00 86 1013.2
20260903104529 82 360 0.0 2.0 0.00 0.00 0.00 86 1013.2
20260903103028 82 360 1.0 3.0 0.00 0.00 0.00 85 1013.1
20260903101517 82 360 1.0 2.0 0.00 0.00 0.00 85 1013.1
20260903100019 82 360 1.0 3.0 0.00 0.00 0.00 84 1012.9
20260903094542 83 360 1.0 6.0 0.00 0.00 0.00 84 1012.8
20260903093028 83 360 2.0 8.0 0.00 0.00 0.00 83 1012.9
20260903091512 83 360 3.0 8.0 0.00 0.00 0.00 84 1012.9
20260903090020 83 360 1.0 6.0 0.00 0.00 0.00 84 1012.9
20260903084525 83 360 2.0 8.0 0.00 0.00 0.00 83 1012.9
20260903083011 83 360 4.0 8.0 0.00 0.00 0.00 82 1012.8
20260903081514 83 360 4.0 8.0 0.00 0.00 0.00 82 1012.7
20260903080021 83 360 5.0 11.0 0.00 0.00 0.00 82 1012.7
20260903074526 83 360 3.0 10.0 0.00 0.00 0.00 83 1012.7
20260903073013 83 360 4.0 10.0 0.00 0.00 0.00 82 1012.6
20260903071516 83 360 3.0 8.0 0.00 0.00 0.00 82 1012.7
20260903070022 83 360 5.0 9.0 0.00 0.00 0.00 81 1012.8
20260903064544 83 360 4.0 10.0 0.00 0.00 0.00 82 1012.9
20260903063010 84 360 2.0 6.0 0.00 0.00 0.00 82 1013.2
20260903061515 84 360 3.0 10.0 0.00 0.00 0.00 81 1013.3
20260903060018 84 360 2.0 5.0 0.00 0.00 0.00 80 1013.7
20260903054525 83 360 3.0 8.0 0.00 0.00 0.00 81 1013.8
20260903053027 83 360 1.0 6.0 0.00 0.00 0.00 82 1013.9
20260903051535 84 360 1.0 5.0 0.00 0.00 0.00 82 1013.9
20260903050019 84 360 2.0 5.0 0.00 0.00 0.00 81 1013.8
20260903044528 84 360 2.0 6.0 0.00 0.00 0.00 81 1013.8
20260903043012 84 360 3.0 8.0 0.00 0.00 0.00 81 1013.9
20260903041521 84 360 2.0 5.0 0.00 0.00 0.00 82 1014.1
20260903040026 84 360 2.0 5.0 0.00 0.00 0.00 82 1013.9
20260903034515 83 360 1.0 8.0 0.00 0.00 0.00 83 1013.9
20260903033018 83 360 2.0 3.0 0.00 0.00 0.00 83 1013.8
20260903031526 83 360 1.0 5.0 0.00 0.00 0.00 83 1013.9
20260903030028 82 360 1.0 4.0 0.00 0.00 0.00 83 1013.7
20260903024516 82 360 0.0 1.0 0.00 0.00 0.00 83 1013.5
20260903023040 82 360 0.0 0.0 0.00 0.00 0.00 82 1013.2
20260903021522 82 360 0.0 0.0 0.00 0.00 0.00 80 1013.0
20260903020029 83 360 0.0 1.0 0.00 0.00 0.00 78 1012.8
20260903014514 84 360 2.0 3.0 0.00 0.00 0.00 77 1013.0
20260903013021 85 360 4.0 9.0 0.00 0.00 0.00 74 1013.0
20260903011523 86 360 2.0 9.0 0.00 0.00 0.00 72 1013.0
20260903010010 87 360 1.0 2.0 0.00 0.00 0.00 71 1012.8
20260903004535 88 360 2.0 8.0 0.00 0.00 0.00 70 1012.1
20260903003023 88 360 2.0 8.0 0.00 0.00 0.00 71 1012.1
20260903001528 89 360 4.0 12.0 0.00 0.00 0.00 69 1012.0
20260903000017 89 360 6.0 13.0 0.00 0.00 0.00 69 1010.9
20260902234521 89 360 3.0 11.0 0.00 0.00 0.00 71 1010.8
20260902233026 89 360 4.0 10.0 0.00 0.00 0.00 70 1011.1
20260902231535 90 360 1.0 10.0 0.00 0.00 0.00 72 1011.2
20260902230018 90 360 3.0 8.0 0.00 0.00 0.00 71 1011.0
20260902224523 91 360 4.0 9.0 0.00 0.00 0.00 69 1010.9
20260902223028 91 360 4.0 10.0 0.00 0.00 0.00 70 1011.1
20260902221517 92 360 3.0 11.0 0.00 0.00 0.00 69 1011.4